Location: G�ppingen
(48.7000°N, 9.6670°E)
Time: 19:28:26
(UTC+02:00)

Amateur Radio Satellites - All Passes

Search period start: 16 August 2017 18:58
Search period end: 17 August 2017 18:58
Location: G�ppingen, 48.7000°N, 9.6670°E

Satellite Date Start Highest point End Downlink Frequencies (MHz)
Time Altitude Azimuth
CUTE 1.7 + AOD 2 16 Aug 18:58:47 19:02:34 33° 68° (ENE) 19:06:25 437.475
XW-2F 16 Aug 19:02:45 19:06:20 44° 261° (W) 19:09:58 145.980 - 146.000
ZACube-1 16 Aug 19:14:41 19:15:08 10° 56° (NE) 19:15:34 437.345
AAUSAT CUBESAT 2 16 Aug 19:23:38 19:26:40 20° 63° (ENE) 19:29:44 437.432
CUTE-I 16 Aug 19:34:24 19:39:17 35° 264° (W) 19:44:12 437.470
XW-2A 16 Aug 19:34:39 19:37:45 37° 71° (ENE) 19:40:52 145.665 - 145.685
O/OREOS (USA 219) 16 Aug 19:35:14 19:38:51 23° 49° (NE) 19:42:28 437.305
AO-73 16 Aug 19:36:57 19:39:20 15° 60° (ENE) 19:41:43 145.935
KAITUO 1B 16 Aug 19:37:43 19:40:42 23° 266° (W) 19:43:44 145.475/437.950
YUBILEINY 16 Aug 19:38:54 19:45:36 24° 303° (WNW) 19:52:20 435.215
KKS-1 16 Aug 19:40:52 19:44:29 25° 297° (WNW) 19:48:03 437.445
LilacSat-2 16 Aug 19:41:08 19:43:36 17° 269° (W) 19:46:05 437.200
DOVE 4 16 Aug 19:49:12 19:50:27 11° 277° (W) 19:51:41 437.250
CUBEBUG 2 16 Aug 19:51:10 19:55:26 62° 73° (ENE) 19:59:37 437.445
XW-2D 16 Aug 19:52:46 19:54:34 13° 271° (W) 19:56:23 145.860 - 145.880
UWE-3 16 Aug 19:55:13 19:59:11 41° 70° (ENE) 20:03:06 435.000/436.395/437.385
SEEDS 16 Aug 19:56:18 20:00:30 82° 75° (ENE) 20:04:46 437.485
XW-2B 16 Aug 20:05:02 20:05:35 10° 273° (W) 20:06:07 145.730 - 145.750
Oscar 11 16 Aug 20:26:26 20:30:19 34° 68° (ENE) 20:34:15 .
HO-68 16 Aug 20:28:08 20:34:56 45° 261° (W) 20:41:46 435.675
RS-15 16 Aug 20:29:44 20:41:57 66° 41° (NE) 20:53:30 29.354- 29.394
STARS 16 Aug 20:34:45 20:37:37 17° 301° (WNW) 20:40:28 437.465
CUTE 1.7 + AOD 2 16 Aug 20:34:50 20:38:27 27° 266° (W) 20:42:06 437.475
STRAND 1 16 Aug 20:38:51 20:43:50 51° 100° (E) 20:48:47 437.568
ZACube-1 16 Aug 20:46:31 20:50:41 78° 75° (ENE) 20:54:51 437.345
AAUSAT CUBESAT 2 16 Aug 20:57:48 21:01:49 48° 261° (W) 21:05:53 437.432
XW-2A 16 Aug 21:08:40 21:10:40 15° 268° (W) 21:12:41 145.665 - 145.685
AO-73 16 Aug 21:10:58 21:15:06 66° 258° (WSW) 21:19:14 145.935
O/OREOS (USA 219) 16 Aug 21:14:09 21:18:35 55° 249° (WSW) 21:23:02 437.305
DELFI C3 16 Aug 21:16:02 21:19:28 28° 67° (ENE) 21:22:56 145.870
CUBEBUG 2 16 Aug 21:29:55 21:32:27 15° 270° (W) 21:34:56 437.445
UWE-3 16 Aug 21:32:31 21:35:48 22° 267° (W) 21:39:04 435.000/436.395/437.385
SEEDS 16 Aug 21:35:29 21:36:47 11° 274° (W) 21:38:06 437.485
EO-88 16 Aug 21:39:27 21:42:35 28° 68° (ENE) 21:45:46 145.990 - 145.960
FO-29 16 Aug 21:46:01 21:50:24 21° 88° (E) 21:54:28 435.910
Oscar 11 16 Aug 22:02:49 22:06:31 27° 266° (W) 22:10:13 .
Max Valier Satellite 16 Aug 22:07:06 22:10:45 75° 74° (ENE) 22:14:24 145.860
ESTCUBE 1 16 Aug 22:18:16 22:20:17 13° 56° (NE) 22:22:18 437.505/2401.250
STRAND 1 16 Aug 22:18:34 22:22:44 26° 299° (WNW) 22:26:53 437.568
ZACube-1 16 Aug 22:26:06 22:27:31 11° 273° (W) 22:28:57 437.345
UNISAT 6 16 Aug 22:39:36 22:43:13 26° 94° (E) 22:46:51 437.425
RS-15 16 Aug 22:42:50 22:54:09 50° 248° (WSW) 23:04:55 29.354- 29.394
PRISM 16 Aug 22:43:16 22:46:20 20° 92° (E) 22:49:21 437.425
DELFI C3 16 Aug 22:50:41 22:54:11 29° 265° (W) 22:57:44 145.870
EO-88 16 Aug 23:13:18 23:16:16 24° 266° (W) 23:19:16 145.990 - 145.960
TIGRISAT 16 Aug 23:15:50 23:20:03 55° 101° (E) 23:24:16 435.000
LO-87 16 Aug 23:25:29 23:29:04 69° 74° (ENE) 23:32:39 145.935 - 145.965
FO-29 16 Aug 23:30:15 23:36:11 64° 290° (WNW) 23:41:30 435.910
SPROUT 16 Aug 23:32:51 23:35:37 17° 60° (ENE) 23:38:25 437.525
ESTCUBE 1 16 Aug 23:51:51 23:56:22 85° 75° (ENE) 00:00:56 437.505/2401.250
AIST 2D 17 Aug 00:03:26 00:06:22 24° 95° (E) 00:09:18 435.315
M-CUBED/EXP-1 PRIME 17 Aug 00:09:52 00:13:24 22° 97° (E) 00:16:47 437.505
UNISAT 6 17 Aug 00:16:06 00:20:00 35° 292° (WNW) 00:23:56 437.425
POLYITAN 1 17 Aug 00:17:05 00:19:47 16° 90° (E) 00:22:26 437.675
NANOSAT C BR1 17 Aug 00:17:28 00:19:54 15° 90° (E) 00:22:18 145.865
PRISM 17 Aug 00:17:51 00:21:49 45° 291° (WNW) 00:25:45 437.425
VELOX 1 17 Aug 00:20:59 00:25:10 41° 68° (ENE) 00:29:22 145.980
UKube-1 17 Aug 00:30:19 00:32:17 13° 56° (ENE) 00:34:16 .
QB50P2 17 Aug 00:31:18 00:34:47 24° 94° (E) 00:38:14 145.880/145.840
EO-79 17 Aug 00:33:54 00:37:18 24° 93° (E) 00:40:43 145.935-145.965
PCSat 17 Aug 00:37:44 00:43:02 58° 118° (ESE) 00:48:22 145.827
DX 1 17 Aug 00:39:50 00:43:12 22° 62° (ENE) 00:46:35 434.975-435.025
SO-50 17 Aug 00:45:27 00:49:22 30° 117° (ESE) 00:53:17 436.795
TIGRISAT 17 Aug 00:53:25 00:56:23 19° 298° (WNW) 00:59:21 435.000
RS-15 17 Aug 01:02:10 01:03:08 10° 272° (W) 01:04:08 29.354- 29.394
LO-87 17 Aug 01:02:29 01:02:56 10° 272° (W) 01:03:23 145.935 - 145.965
50 SAT 17 Aug 01:03:16 01:06:28 38° 70° (ENE) 01:09:42 437.505
SPROUT 17 Aug 01:06:52 01:11:05 61° 258° (WSW) 01:15:20 437.525
DUCHIFAT 1 17 Aug 01:09:42 01:13:42 43° 99° (E) 01:17:40 145.980
FO-29 17 Aug 01:17:18 01:19:58 13° 313° (NW) 01:22:32 435.910
BUGSAT 1 17 Aug 01:30:25 01:33:31 21° 93° (E) 01:36:36 437.445
ESTCUBE 1 17 Aug 01:32:02 01:33:49 12° 273° (W) 01:35:36 437.505/2401.250
AIST 2D 17 Aug 01:36:31 01:39:33 27° 292° (WNW) 01:42:34 435.315
M-CUBED/EXP-1 PRIME 17 Aug 01:43:39 01:48:04 48° 296° (WNW) 01:52:13 437.505
Oscar 19 17 Aug 01:44:59 01:48:22 17° 89° (E) 01:51:42 437.125/150
YUBILEINY 17 Aug 01:48:39 01:53:32 16° 48° (NE) 01:58:23 435.215
POLYITAN 1 17 Aug 01:51:47 01:55:55 56° 288° (WNW) 02:00:01 437.675
NANOSAT C BR1 17 Aug 01:51:52 01:56:01 61° 287° (WNW) 02:00:08 145.865
VELOX 1 17 Aug 01:58:05 02:01:45 25° 266° (W) 02:05:27 145.980
UKube-1 17 Aug 02:03:19 02:07:40 90° 300° (WNW) 02:12:01 .
QB50P2 17 Aug 02:06:47 02:10:41 37° 292° (WNW) 02:14:32 145.880/145.840
EO-79 17 Aug 02:09:18 02:13:11 37° 292° (WNW) 02:17:04 145.935-145.965
DX 1 17 Aug 02:14:51 02:19:06 48° 260° (W) 02:23:22 434.975-435.025
BEESAT 17 Aug 02:16:49 02:20:13 20° 59° (ENE) 02:23:38 436.000
Gurwin Techsat 1B 17 Aug 02:18:18 02:22:26 23° 91° (E) 02:26:33 435.225
PCSat 17 Aug 02:21:54 02:26:45 32° 319° (NW) 02:31:38 145.827
SO-50 17 Aug 02:25:20 02:29:40 45° 317° (NW) 02:34:02 436.795
50 SAT 17 Aug 02:37:10 02:39:20 16° 268° (W) 02:41:30 437.505
MOZHAYETS 4 17 Aug 02:43:23 02:47:06 25° 63° (ENE) 02:50:49
DUCHIFAT 1 17 Aug 02:45:55 02:49:07 22° 297° (WNW) 02:52:18 145.980
ITUPSAT 1 17 Aug 02:46:44 02:50:59 34° 65° (ENE) 02:55:15 437.325
BUGSAT 1 17 Aug 03:05:17 03:09:02 38° 291° (WNW) 03:12:46 437.445
NO-84 17 Aug 03:14:38 03:16:10 14° 132° (SE) 03:17:41 435.350 FM
Oscar 19 17 Aug 03:23:02 03:28:15 75° 288° (WNW) 03:33:27 437.125/150
AO-7 17 Aug 03:24:56 03:30:20 18° 87° (E) 03:35:42 .
UKube-1 17 Aug 03:43:23 03:44:20 11° 273° (W) 03:45:17 .
YUBILEINY 17 Aug 03:44:00 03:52:37 59° 74° (ENE) 04:01:10 435.215
BEESAT 17 Aug 03:52:52 03:57:34 63° 258° (WSW) 04:02:18 436.000
Gurwin Techsat 1B 17 Aug 03:57:32 04:02:46 59° 290° (WNW) 04:07:59 435.225
SO-50 17 Aug 04:08:38 04:11:14 15° 339° (NNW) 04:13:51 436.795
PCSat 17 Aug 04:09:26 04:11:55 13° 344° (NNW) 04:14:25 145.827
MOZHAYETS 4 17 Aug 04:19:43 04:24:03 43° 262° (W) 04:28:25
STARS 17 Aug 04:23:52 04:25:59 13° 56° (ENE) 04:28:05 437.465
ITUPSAT 1 17 Aug 04:24:29 04:28:47 34° 263° (W) 04:33:08 437.325
CUBESAT XI-V 17 Aug 04:26:19 04:30:49 52° 71° (ENE) 04:35:23 437.345
ITAMSAT 1 17 Aug 04:32:08 04:36:59 39° 97° (E) 04:41:49 435.822/435.867
NO-84 17 Aug 04:50:19 04:53:08 77° 328° (NNW) 04:56:02 435.350 FM
Oscar 19 17 Aug 05:04:07 05:06:44 14° 307° (NW) 05:09:20 437.125/150
KKS-1 17 Aug 05:05:13 05:09:39 64° 72° (ENE) 05:14:05 437.445
AO-7 17 Aug 05:16:04 05:24:29 78° 108° (ESE) 05:32:47 .
Gurwin Techsat 1B 17 Aug 05:39:59 05:41:40 12° 310° (NW) 05:43:22 435.225
YUBILEINY 17 Aug 05:41:21 05:49:02 36° 276° (W) 05:56:40 435.215
SO-50 17 Aug 05:52:27 05:53:38 11° 5° (N) 05:54:49 436.795
PCSat 17 Aug 05:55:51 05:57:52 12° 11° (N) 05:59:52 145.827
STARS 17 Aug 05:57:15 06:01:40 89° 255° (WSW) 06:06:06 437.465
DOVE 4 17 Aug 06:02:32 06:06:27 25° 91° (E) 06:10:09 437.250
BEESAT 3 17 Aug 06:04:26 06:05:41 11° 109° (ESE) 06:06:56 437.485
CUBESAT XI-V 17 Aug 06:05:01 06:08:30 21° 269° (W) 06:12:01 437.345
CUTE-I 17 Aug 06:10:24 06:10:58 10° 84° (E) 06:11:33 437.470
ITAMSAT 1 17 Aug 06:11:46 06:16:23 33° 296° (WNW) 06:20:58 435.822/435.867
XW-2C 17 Aug 06:17:12 06:17:41 10° 87° (E) 06:18:10 145.795 - 145.815
STRAND 1 17 Aug 06:21:35 06:25:02 19° 57° (ENE) 06:28:29 437.568
NO-84 17 Aug 06:28:24 06:30:52 25° 352° (N) 06:33:24 435.350 FM
XW-2F 17 Aug 06:31:51 06:33:59 14° 90° (E) 06:36:08 145.980 - 146.000
KKS-1 17 Aug 06:43:51 06:46:38 16° 270° (W) 06:49:25 437.445
KAITUO 1B 17 Aug 07:04:17 07:07:30 25° 95° (E) 07:10:42 145.475/437.950
LilacSat-2 17 Aug 07:08:45 07:12:24 39° 98° (E) 07:16:04 437.200
AO-7 17 Aug 07:09:31 07:16:34 32° 310° (NW) 07:23:35 .
XW-2D 17 Aug 07:18:52 07:22:37 49° 100° (E) 07:26:20 145.860 - 145.880
XW-2B 17 Aug 07:29:43 07:33:32 64° 101° (E) 07:37:21 145.730 - 145.750
SO-50 17 Aug 07:32:24 07:35:49 20° 29° (NNE) 07:39:15 436.795
STARS 17 Aug 07:37:34 07:38:40 11° 273° (W) 07:39:46 437.465
SEEDS 17 Aug 07:38:28 07:39:36 11° 86° (E) 07:40:44 437.485
BEESAT 3 17 Aug 07:38:34 07:42:35 88° 129° (SE) 07:46:39 437.485
PCSat 17 Aug 07:38:42 07:43:15 26° 37° (NE) 07:47:47 145.827
DOVE 4 17 Aug 07:39:50 07:44:21 42° 292° (WNW) 07:48:35 437.250
BEESAT 2 17 Aug 07:41:54 07:45:34 35° 119° (ESE) 07:49:17 435.950
NUDT-PHONESAT 17 Aug 07:43:49 07:47:34 70° 102° (ESE) 07:51:17 437.300
CUTE-I 17 Aug 07:46:41 07:52:02 69° 103° (ESE) 07:57:18 437.470
XW-2C 17 Aug 07:48:32 07:52:23 77° 285° (WNW) 07:56:13 145.795 - 145.815
HO-68 17 Aug 07:51:14 07:57:28 31° 94° (E) 08:03:39 435.675
AO-85 17 Aug 07:55:23 07:59:19 86° 121° (ESE) 08:03:15 145.980
STRAND 1 17 Aug 07:58:31 08:03:38 78° 255° (WSW) 08:08:47 437.568
FO-29 17 Aug 08:01:43 08:07:10 23° 55° (NE) 08:12:16 435.910
XW-2F 17 Aug 08:04:42 08:08:26 53° 287° (WNW) 08:12:10 145.980 - 146.000
NO-84 17 Aug 08:06:14 08:08:51 28° 13° (NNE) 08:11:37 435.350 FM
CUTE 1.7 + AOD 2 17 Aug 08:14:55 08:18:58 39° 97° (E) 08:22:59 437.475
XW-2A 17 Aug 08:25:11 08:27:58 23° 95° (E) 08:30:45 145.665 - 145.685
ZACube-1 17 Aug 08:32:42 08:34:01 11° 87° (E) 08:35:21 437.345
AAUSAT CUBESAT 2 17 Aug 08:36:20 08:39:30 20° 92° (E) 08:42:38 437.432
KAITUO 1B 17 Aug 08:38:11 08:41:29 29° 292° (WNW) 08:44:47 145.475/437.950
LilacSat-2 17 Aug 08:43:34 08:46:27 20° 296° (WNW) 08:49:21 437.200
TIGRISAT 17 Aug 08:45:19 08:46:19 11° 56° (NE) 08:47:19 435.000
XW-2D 17 Aug 08:53:57 08:56:26 17° 297° (WNW) 08:58:56 145.860 - 145.880
AO-73 17 Aug 08:55:27 08:58:19 17° 91° (E) 09:01:13 145.935
AO-7 17 Aug 09:04:43 09:06:45 11° 335° (NNW) 09:08:48 .
XW-2B 17 Aug 09:05:15 09:07:15 14° 299° (WNW) 09:09:15 145.730 - 145.750
SEEDS 17 Aug 09:11:36 09:15:54 86° 281° (W) 09:20:09 437.485
SO-50 17 Aug 09:12:23 09:16:57 82° 51° (NE) 09:21:33 436.795
CUBEBUG 2 17 Aug 09:14:09 09:18:19 83° 101° (E) 09:22:33 437.445
UWE-3 17 Aug 09:16:33 09:20:39 53° 100° (E) 09:24:50 435.000/436.395/437.385
BEESAT 3 17 Aug 09:17:46 09:20:42 19° 328° (NNW) 09:23:39 437.485
NUDT-PHONESAT 17 Aug 09:19:21 09:20:57 12° 300° (WNW) 09:22:32 437.300
BEESAT 2 17 Aug 09:19:38 09:23:20 33° 319° (NW) 09:27:04 435.950
PCSat 17 Aug 09:21:47 09:27:14 78° 238° (WSW) 09:32:39 145.827
CUTE-I 17 Aug 09:27:37 09:31:35 22° 302° (WNW) 09:35:31 437.470
PRISM 17 Aug 09:35:53 09:39:17 25° 64° (ENE) 09:42:42 437.425
AO-85 17 Aug 09:37:28 09:40:14 18° 329° (NNW) 09:43:03 145.980
HO-68 17 Aug 09:38:35 09:45:38 62° 294° (WNW) 09:52:39 435.675
UNISAT 6 17 Aug 09:41:53 09:45:53 37° 68° (ENE) 09:49:51 437.425
STRAND 1 17 Aug 09:42:06 09:43:40 11° 275° (W) 09:45:15 437.568
NO-84 17 Aug 09:43:26 09:46:30 82° 210° (SSW) 09:49:47 435.350 FM
FO-29 17 Aug 09:43:44 09:51:26 85° 74° (ENE) 09:58:27 435.910
Oscar 11 17 Aug 09:45:13 09:49:21 41° 98° (E) 09:53:28 .
CUTE 1.7 + AOD 2 17 Aug 09:51:06 09:54:37 25° 295° (WNW) 09:58:07 437.475
XW-2A 17 Aug 09:57:50 10:00:39 25° 292° (WNW) 10:03:29 145.665 - 145.685
ZACube-1 17 Aug 10:06:38 10:10:52 83° 287° (WNW) 10:15:10 437.345
AAUSAT CUBESAT 2 17 Aug 10:11:10 10:15:10 44° 290° (WNW) 10:19:08 437.432
TIGRISAT 17 Aug 10:17:56 10:22:17 77° 73° (ENE) 10:26:35 435.000
DELFI C3 17 Aug 10:23:24 10:26:48 26° 94° (E) 10:30:10 145.870
AO-73 17 Aug 10:30:44 10:34:51 53° 288° (WNW) 10:39:02 145.935
EO-88 17 Aug 10:37:42 10:40:37 22° 94° (E) 10:43:31 145.990 - 145.960
AIST 2D 17 Aug 10:41:56 10:44:15 17° 64° (ENE) 10:46:35 435.315
SEEDS 17 Aug 10:49:19 10:50:53 12° 303° (WNW) 10:52:27 437.485
CUBEBUG 2 17 Aug 10:52:34 10:54:22 13° 302° (WNW) 10:56:10 437.445
UWE-3 17 Aug 10:53:53 10:56:47 18° 298° (WNW) 10:59:42 435.000/436.395/437.385
SO-50 17 Aug 10:54:09 10:56:50 16° 249° (WSW) 10:59:32 436.795
M-CUBED/EXP-1 PRIME 17 Aug 10:57:53 11:02:12 50° 64° (ENE) 11:06:42 437.505
BEESAT 2 17 Aug 11:01:00 11:02:16 11° 341° (NNW) 11:03:32 435.950
RS-15 17 Aug 11:01:02 11:09:45 24° 98° (E) 11:18:29 29.354- 29.394
Max Valier Satellite 17 Aug 11:06:45 11:10:25 59° 101° (E) 11:14:04 145.860
PCSat 17 Aug 11:07:14 11:09:44 13° 257° (WSW) 11:12:14 145.827
PRISM 17 Aug 11:10:30 11:14:23 37° 262° (W) 11:18:18 437.425
NANOSAT C BR1 17 Aug 11:13:00 11:16:00 19° 62° (ENE) 11:19:00 145.865
POLYITAN 1 17 Aug 11:13:09 11:16:19 21° 63° (ENE) 11:19:29 437.675
UNISAT 6 17 Aug 11:19:03 11:22:42 26° 266° (W) 11:26:18 437.425
Oscar 11 17 Aug 11:21:47 11:25:17 24° 296° (WNW) 11:28:48 .
NO-84 17 Aug 11:21:57 11:23:31 13° 228° (SW) 11:25:08 435.350 FM
Tancredo 1 17 Aug 11:22:11 11:24:09 17° 140° (SE) 11:26:06 437.200
QB50P2 17 Aug 11:27:19 11:31:02 30° 66° (ENE) 11:34:44 145.880/145.840
HO-68 17 Aug 11:27:51 11:32:03 17° 315° (NW) 11:36:15 435.675
EO-79 17 Aug 11:29:43 11:33:23 30° 66° (ENE) 11:37:03 145.935-145.965
O/OREOS (USA 219) 17 Aug 11:29:56 11:34:23 81° 116° (ESE) 11:38:54 437.305
FO-29 17 Aug 11:31:21 11:37:06 23° 271° (W) 11:42:33 435.910
ESTCUBE 1 17 Aug 11:41:48 11:44:12 14° 88° (E) 11:46:36 437.505/2401.250
ZACube-1 17 Aug 11:45:12 11:46:29 11° 303° (WNW) 11:47:45 437.345
TIGRISAT 17 Aug 11:57:37 11:59:30 13° 272° (W) 12:01:22 435.000
DELFI C3 17 Aug 11:58:02 12:01:35 31° 293° (WNW) 12:05:06 145.870
DUCHIFAT 1 17 Aug 12:04:45 12:08:49 52° 71° (ENE) 12:12:54 145.980
Gurwin Techsat 1B 17 Aug 12:09:00 12:09:12 10° 48° (NE) 12:09:25 435.225
EO-88 17 Aug 12:11:03 12:14:21 31° 291° (WNW) 12:17:37 145.990 - 145.960
AIST 2D 17 Aug 12:13:55 12:17:11 39° 262° (W) 12:20:30 435.315
LO-87 17 Aug 12:21:53 12:25:20 48° 100° (E) 12:28:45 145.935 - 145.965
BUGSAT 1 17 Aug 12:23:32 12:26:57 26° 65° (ENE) 12:30:21 437.445
M-CUBED/EXP-1 PRIME 17 Aug 12:33:18 12:36:50 23° 263° (W) 12:40:30 437.505
BEESAT 3 17 Aug 12:38:52 12:39:20 10° 16° (NNE) 12:39:48 437.485
AO-7 17 Aug 12:40:57 12:44:34 14° 31° (NNE) 12:48:11 .
Max Valier Satellite 17 Aug 12:41:56 12:43:49 14° 299° (WNW) 12:45:43 145.860
NANOSAT C BR1 17 Aug 12:47:18 12:51:23 50° 260° (W) 12:55:29 145.865
POLYITAN 1 17 Aug 12:47:48 12:51:49 45° 261° (W) 12:55:53 437.675
SPROUT 17 Aug 12:49:24 12:52:13 17° 91° (E) 12:55:01 437.525
ISS 17 Aug 12:51:12 12:54:10 32° 146° (SE) 12:57:09 437.550
Tancredo 1 17 Aug 12:56:06 12:59:01 85° 164° (SSE) 13:01:58 437.200
QB50P2 17 Aug 13:03:05 13:06:48 30° 264° (W) 13:10:31 145.880/145.840
AO-85 17 Aug 13:03:06 13:04:36 12° 20° (NNE) 13:06:08 145.980
nSIGHT-1 17 Aug 13:05:01 13:08:07 42° 149° (SSE) 13:11:14 .
Oscar 19 17 Aug 13:05:06 13:09:47 37° 65° (ENE) 13:14:30 437.125/150
EO-79 17 Aug 13:05:22 13:09:06 31° 264° (W) 13:12:51 145.935-145.965
RS-15 17 Aug 13:07:59 13:20:12 77° 123° (ESE) 13:32:30 29.354- 29.394
O/OREOS (USA 219) 17 Aug 13:11:27 13:14:25 17° 315° (NW) 13:17:23 437.305
ESTCUBE 1 17 Aug 13:16:58 13:21:32 75° 287° (WNW) 13:26:04 437.505/2401.250
DUCHIFAT 1 17 Aug 13:42:01 13:44:48 17° 269° (W) 13:47:35 145.980
Gurwin Techsat 1B 17 Aug 13:42:51 13:47:59 51° 68° (ENE) 13:53:09 435.225
VELOX 1 17 Aug 13:43:04 13:47:21 46° 99° (E) 13:51:36 145.980
UKube-1 17 Aug 13:48:37 13:49:57 11° 87° (E) 13:51:17 .
50 SAT 17 Aug 13:53:52 13:56:34 22° 95° (E) 13:59:14 437.505
LO-87 17 Aug 13:56:20 13:58:24 15° 298° (WNW) 14:00:28 145.935 - 145.965
BUGSAT 1 17 Aug 13:58:27 14:02:12 33° 263° (W) 14:05:56 437.445
DX 1 17 Aug 13:59:27 14:02:51 22° 93° (E) 14:06:13 434.975-435.025
BEESAT 3 17 Aug 14:14:39 14:18:12 29° 39° (NE) 14:21:41 437.485
ITAMSAT 1 17 Aug 14:17:08 14:20:16 16° 55° (NE) 14:23:23 435.822/435.867
BEESAT 2 17 Aug 14:18:34 14:21:20 17° 30° (NNE) 14:24:04 435.950
SPROUT 17 Aug 14:24:18 14:28:27 54° 289° (WNW) 14:32:35 437.525
ISS 17 Aug 14:27:15 14:30:31 67° 344° (NNW) 14:33:47 437.550
AO-7 17 Aug 14:27:31 14:35:06 40° 55° (NE) 14:42:42 .
Tancredo 1 17 Aug 14:31:37 14:34:26 44° 357° (N) 14:37:15 437.200
nSIGHT-1 17 Aug 14:41:15 14:44:28 58° 347° (NNW) 14:47:42 .
AO-85 17 Aug 14:42:15 14:46:08 36° 42° (NE) 14:50:16 145.980
Oscar 19 17 Aug 14:44:25 14:49:06 35° 264° (W) 14:53:51 437.125/150
ESTCUBE 1 17 Aug 14:55:59 14:57:32 12° 305° (NW) 14:59:06 437.505/2401.250
YUBILEINY 17 Aug 14:59:48 15:03:09 13° 68° (ENE) 15:06:29 435.215
VELOX 1 17 Aug 15:20:04 15:23:32 23° 298° (WNW) 15:26:59 145.980
RS-15 17 Aug 15:21:52 15:33:47 50° 330° (NNW) 15:45:37 29.354- 29.394
UKube-1 17 Aug 15:22:14 15:26:35 86° 285° (WNW) 15:30:54 .
Gurwin Techsat 1B 17 Aug 15:23:49 15:28:13 26° 267° (W) 15:32:39 435.225
50 SAT 17 Aug 15:26:20 15:29:16 27° 292° (WNW) 15:32:09 437.505
DX 1 17 Aug 15:35:05 15:39:14 44° 291° (WNW) 15:43:22 434.975-435.025
BEESAT 17 Aug 15:49:19 15:53:12 24° 93° (E) 15:57:04 436.000
BEESAT 3 17 Aug 15:52:06 15:55:55 43° 239° (WSW) 15:59:39 437.485
ITAMSAT 1 17 Aug 15:53:48 15:59:01 88° 74° (ENE) 16:04:16 435.822/435.867
BEESAT 2 17 Aug 15:55:39 15:59:45 77° 52° (NE) 16:03:46 435.950
ISS 17 Aug 16:04:04 16:07:15 49° 4° (N) 16:10:27 437.550
Tancredo 1 17 Aug 16:06:59 16:09:55 70° 17° (NNE) 16:12:49 437.200
MOZHAYETS 4 17 Aug 16:10:30 16:14:40 32° 96° (E) 16:18:49
nSIGHT-1 17 Aug 16:17:57 16:21:09 51° 8° (N) 16:24:20 .
AO-7 17 Aug 16:19:20 16:27:35 61° 256° (WSW) 16:35:53 .
ITUPSAT 1 17 Aug 16:20:18 16:24:54 45° 99° (E) 16:29:27 437.325
AO-85 17 Aug 16:22:37 16:26:32 36° 240° (WSW) 16:30:41 145.980
YUBILEINY 17 Aug 16:49:24 16:57:57 59° 91° (E) 17:06:29 435.215
UKube-1 17 Aug 17:00:11 17:01:55 12° 304° (NW) 17:03:39 .
DOVE 4 17 Aug 17:10:24 17:15:22 42° 68° (ENE) 17:20:15 437.250
XW-2F 17 Aug 17:17:03 17:18:50 13° 60° (ENE) 17:20:38 145.980 - 146.000
BEESAT 17 Aug 17:26:38 17:31:11 46° 292° (WNW) 17:35:43 436.000
CUTE-I 17 Aug 17:33:41 17:38:08 27° 61° (ENE) 17:42:36 437.470
BEESAT 2 17 Aug 17:34:49 17:36:56 14° 249° (WSW) 17:39:01 435.950
ITAMSAT 1 17 Aug 17:36:26 17:39:12 14° 272° (W) 17:41:58 435.822/435.867
RS-15 17 Aug 17:38:38 17:49:51 37° 3° (N) 18:00:45 29.354- 29.394
ISS 17 Aug 17:40:37 17:43:53 76° 204° (SSW) 17:47:09 437.550
Tancredo 1 17 Aug 17:42:29 17:44:57 25° 216° (SW) 17:47:26 437.200
STARS 17 Aug 17:44:28 17:46:17 12° 88° (E) 17:48:05 437.465
MOZHAYETS 4 17 Aug 17:47:42 17:51:48 33° 294° (WNW) 17:55:54
KAITUO 1B 17 Aug 17:48:08 17:50:59 22° 65° (ENE) 17:53:53 145.475/437.950
LilacSat-2 17 Aug 17:54:13 17:57:37 34° 69° (ENE) 18:01:04 437.200
nSIGHT-1 17 Aug 17:54:24 17:57:36 59° 207° (SSW) 18:00:47 .
CUBESAT XI-V 17 Aug 17:55:50 18:00:35 76° 104° (ESE) 18:05:18 437.345
ITUPSAT 1 17 Aug 17:58:33 18:02:31 26° 298° (WNW) 18:06:27 437.325
XW-2D 17 Aug 18:03:33 18:07:05 41° 70° (ENE) 18:10:40 145.860 - 145.880
XW-2B 17 Aug 18:14:21 18:17:59 52° 72° (ENE) 18:21:40 145.730 - 145.750
AO-7 17 Aug 18:18:42 18:22:09 13° 278° (W) 18:25:37 .
HO-68 17 Aug 18:24:05 18:30:26 36° 58° (ENE) 18:36:47 435.675
NUDT-PHONESAT 17 Aug 18:26:22 18:29:56 53° 73° (ENE) 18:33:32 437.300
KKS-1 17 Aug 18:28:32 18:32:59 74° 103° (ESE) 18:37:25 437.445
XW-2C 17 Aug 18:33:04 18:36:49 87° 76° (ENE) 18:40:37 145.795 - 145.815
SEEDS 17 Aug 18:33:28 18:35:36 14° 58° (ENE) 18:37:44 437.485
CUBEBUG 2 17 Aug 18:41:37 18:43:51 14° 59° (ENE) 18:46:05 437.445
DOVE 4 17 Aug 18:48:23 18:53:07 32° 266° (W) 18:57:47 437.250
XW-2F 17 Aug 18:48:46 18:52:28 65° 259° (WSW) 18:56:14 145.980 - 146.000
